Date String (YYYY-MM-DD hh:mm:ss) UTC,Instrument flags,Ambient pressure (hPa),Sample flow (lpm),Bypass flow (lpm),Sample temperature (°C),Ambient temperature (°C),ASC tube jacket temperature (°C),LED temperature (°C),Box temperature (°C),Sample RH (%),Span deviation,Mass concentration (μg/m³),Mass concentration (μg/m³),Mass concentration (μg/m³)
DateTimeUTC,F1_M11,P_M11,Q1_M11,Q2_M11,T1_M11,T2_M11,T3_M11,T4_M11,T5_M11,U1_M11,ZSPAN_M11,X0_M11,X2_M11,X1_M11
2021-09-20 05:00:00,,0820.0,5.00,0.00,29.6,28.5,00.0,38.6,31.3,18.1,0001.2,0010.09,0006.49,0006.02
2021-09-20 05:01:00,,0820.0,5.01,0.00,29.6,28.6,00.0,38.6,31.4,18.0,0001.2,0010.24,0006.55,0006.05
2021-09-20 05:02:00,,0820.0,4.99,0.00,29.6,28.7,00.0,38.6,31.4,17.9,0001.6,0010.29,0006.62,0006.11
2021-09-20 05:03:00,,0819.9,5.02,0.00,29.7,28.7,00.0,38.6,31.4,18.0,0001.8,0010.43,0006.68,0006.16
2021-09-20 05:04:00,,0819.9,4.99,0.00,29.7,28.7,00.0,38.7,31.5,17.9,0001.7,0010.69,0006.71,0006.18
2021-09-20 05:05:00,,0819.9,5.00,0.00,29.7,28.8,00.0,38.7,31.5,17.8,0001.6,0010.59,0006.75,0006.21
2021-09-20 05:06:00,,0819.9,4.99,0.00,29.7,28.8,00.0,38.7,31.5,17.7,0001.5,0010.60,0006.79,0006.24
2021-09-20 05:07:00,,0819.9,5.00,0.00,29.7,27.5,00.0,38.7,31.2,17.7,0001.3,0010.66,0006.84,0006.30
2021-09-20 05:08:00,,0819.9,4.99,0.00,29.5,26.1,00.0,38.7,30.8,17.8,0001.5,0010.71,0006.90,0006.37
2021-09-20 05:09:00,,0819.9,4.99,0.00,29.4,26.2,00.0,38.7,30.8,17.9,0001.9,0010.78,0006.95,0006.43
2021-09-20 05:10:00,,0819.9,5.00,0.00,29.4,26.5,00.0,38.6,30.9,18.0,0001.9,0010.79,0006.98,0006.48
2021-09-20 05:11:00,,0820.0,5.02,0.00,29.3,27.0,00.0,38.6,30.9,18.1,0001.6,0010.85,0007.03,0006.51
2021-09-20 05:12:00,,0819.9,4.99,0.00,29.4,27.3,00.0,38.5,31.0,18.1,0001.5,0010.92,0007.07,0006.54
2021-09-20 05:13:00,,0819.9,4.98,0.00,29.4,27.6,00.0,38.5,31.1,18.0,0001.5,0011.18,0007.08,0006.57
2021-09-20 05:14:00,,0819.9,5.00,0.00,29.4,27.8,00.0,38.5,31.1,18.0,0001.6,0011.13,0007.10,0006.61
2021-09-20 05:15:00,,0819.9,5.01,0.00,29.4,28.0,00.0,38.5,31.2,17.9,0001.9,0010.86,0007.13,0006.66
2021-09-20 05:16:00,,0820.0,5.00,0.00,29.4,28.1,00.0,38.5,31.2,17.8,0002.1,0010.76,0007.12,0006.70
2021-09-20 05:17:00,,0819.9,5.00,0.00,29.5,28.2,00.0,38.5,31.3,17.8,0002.2,0010.64,0007.10,0006.70
2021-09-20 05:18:00,,0819.9,5.00,0.00,29.5,28.3,00.0,38.6,31.3,17.8,0002.5,0010.60,0007.10,0006.69
2021-09-20 05:19:00,,0820.0,5.01,0.00,29.5,28.4,00.0,38.6,31.3,17.9,0002.5,0010.59,0007.10,0006.68
2021-09-20 05:20:00,,0820.0,4.99,0.00,29.5,28.5,00.0,38.6,31.3,17.9,0002.5,0010.53,0007.09,0006.66
2021-09-20 05:21:00,,0819.9,5.00,0.00,29.6,28.5,00.0,38.6,31.3,17.9,0002.4,0010.62,0007.12,0006.66
2021-09-20 05:22:00,,0819.9,5.01,0.00,29.6,28.6,00.0,38.6,31.4,17.8,0002.6,0010.65,0007.12,0006.69
2021-09-20 05:23:00,,0820.0,4.99,0.00,29.6,28.6,00.0,38.6,31.4,17.7,0002.7,0010.58,0007.11,0006.72
2021-09-20 05:24:00,,0819.9,5.01,0.00,29.7,28.7,00.0,38.7,31.4,17.7,0002.6,0010.32,0007.13,0006.75
2021-09-20 05:25:00,,0820.0,4.98,0.00,29.7,28.7,00.0,38.7,31.4,17.7,0002.4,0010.59,0007.16,0006.76
2021-09-20 05:26:00,,0819.9,5.01,0.00,29.7,28.7,00.0,38.7,31.5,17.6,0002.3,0010.92,0007.18,0006.78
2021-09-20 05:27:00,,0819.9,4.99,0.00,29.7,28.8,00.0,38.7,31.5,17.5,0002.0,0010.89,0007.21,0006.81
2021-09-20 05:28:00,,0819.9,5.00,0.00,29.8,28.8,00.0,38.7,31.5,17.5,0002.0,0011.02,0007.25,0006.83
2021-09-20 05:29:00,,0819.9,5.00,0.00,29.8,28.3,00.0,38.8,31.4,17.5,0001.9,0010.99,0007.24,0006.84
2021-09-20 05:30:00,,0819.9,4.99,0.00,29.7,26.4,00.0,38.7,31.0,17.7,0002.0,0010.97,0007.23,0006.84
2021-09-20 05:31:00,,0819.9,5.01,0.00,29.5,26.0,00.0,38.7,30.9,18.2,0002.0,0010.94,0007.21,0006.83
2021-09-20 05:32:00,,0819.9,5.00,0.00,29.4,26.4,00.0,38.7,30.9,18.4,0002.0,0010.95,0007.17,0006.80
2021-09-20 05:33:00,,0820.0,4.99,0.00,29.4,26.8,00.0,38.6,31.0,18.4,0001.9,0011.06,0007.16,0006.78
2021-09-20 05:34:00,,0819.9,5.00,0.00,29.4,27.2,00.0,38.6,31.0,18.3,0002.0,0010.99,0007.14,0006.77
2021-09-20 05:35:00,,0820.0,5.00,0.00,29.4,27.5,00.0,38.6,31.1,18.6,0002.1,0010.92,0007.12,0006.75
2021-09-20 05:36:00,,0820.0,5.01,0.00,29.4,27.7,00.0,38.6,31.1,18.6,0002.0,0010.69,0007.09,0006.73
2021-09-20 05:37:00,,0820.1,5.00,0.00,29.4,27.9,00.0,38.6,31.2,18.6,0001.9,0010.32,0007.06,0006.69
2021-09-20 05:38:00,,0820.1,4.99,0.00,29.4,28.0,00.0,38.6,31.2,18.5,0002.1,0010.78,0007.02,0006.64
2021-09-20 05:39:00,,0820.1,5.01,0.00,29.4,28.2,00.0,38.6,31.2,18.2,0002.1,0011.04,0006.99,0006.61
2021-09-20 05:40:00,,0820.1,4.99,0.00,29.5,28.3,00.0,38.6,31.3,18.1,0001.9,0011.70,0007.01,0006.61
2021-09-20 05:41:00,,0820.2,5.02,0.00,29.5,28.4,00.0,38.6,31.3,18.0,0001.8,0011.75,0007.03,0006.62
2021-09-20 05:42:00,,0820.2,4.99,0.00,29.5,28.5,00.0,38.6,31.3,17.9,0001.7,0011.82,0007.08,0006.66
2021-09-20 05:43:00,,0820.2,5.00,0.00,29.6,28.5,00.0,38.6,31.4,17.9,0001.7,0011.76,0007.11,0006.71
2021-09-20 05:44:00,,0820.2,4.99,0.00,29.6,28.6,00.0,38.6,31.4,17.8,0001.9,0011.86,0007.11,0006.73
2021-09-20 05:45:00,,0820.2,5.00,0.00,29.6,28.7,00.0,38.6,31.4,17.8,0001.9,0012.29,0007.15,0006.76
2021-09-20 05:46:00,,0820.2,5.01,0.00,29.7,28.7,00.0,38.6,31.5,17.8,0001.8,0012.26,0007.17,0006.80
2021-09-20 05:47:00,,0820.2,4.99,0.00,29.7,28.8,00.0,38.7,31.5,17.7,0001.9,0012.34,0007.22,0006.83
2021-09-20 05:48:00,,0820.2,5.01,0.00,29.7,28.8,00.0,38.7,31.5,17.7,0001.7,0012.50,0007.27,0006.87
2021-09-20 05:49:00,,0820.3,4.99,0.00,29.8,28.9,00.0,38.7,31.6,17.7,0001.6,0012.08,0007.31,0006.91
2021-09-20 05:50:00,,0820.3,5.01,0.00,29.8,28.9,00.0,38.7,31.6,17.7,0001.4,0011.88,0007.34,0006.94
2021-09-20 05:51:00,,0820.2,4.99,0.00,29.8,29.0,00.0,38.8,31.6,17.7,0001.4,0011.09,0007.34,0006.95
2021-09-20 05:52:00,,0820.4,5.01,0.00,29.9,29.0,00.0,38.8,31.7,17.6,0001.5,0011.16,0007.34,0006.95
2021-09-20 05:53:00,,0820.5,4.99,0.00,29.9,29.0,00.0,38.8,31.7,17.6,0001.5,0011.18,0007.32,0006.95
2021-09-20 05:54:00,,0820.6,5.01,0.00,29.8,27.6,00.0,38.8,31.3,17.6,0001.6,0011.28,0007.33,0006.94
2021-09-20 05:55:00,,0820.7,4.99,0.00,29.7,26.3,00.0,38.8,31.0,17.9,0001.4,0011.19,0007.36,0006.95
2021-09-20 05:56:00,,0820.7,5.00,0.00,29.6,26.4,00.0,38.8,31.0,19.9,0001.4,0011.99,0007.53,0007.01
2021-09-20 05:57:00,,0820.8,5.01,0.00,29.5,26.8,00.0,38.7,31.1,20.9,0001.5,0014.31,0007.90,0007.12
2021-09-20 05:58:00,,0820.9,5.00,0.00,29.5,27.1,00.0,38.7,31.1,21.0,0001.5,0017.09,0008.22,0007.23
2021-09-20 05:59:00,,0820.9,5.00,0.00,29.5,27.5,00.0,38.7,31.2,21.2,0001.7,0018.65,0008.58,0007.34
